Regional Weather Roundup
Issued by NWS Cleveland, OH

Home | Current Version | Previous Version | Text Only | Print | Product List | Glossary On
Versions: 1 2 3 4 5 6 7 8 9 10 11 12 13 14 15 16 17 18 19 20 21 22 23 24 25 26 27 28 29 30 31 32 33 34 35 36 37 38 39 40 41 42 43 44 45 46 47 48 49 50
000
ASUS41 KCLE 211510
RWRCLE
OHIO REGIONAL WEATHER ROUNDUP
NATIONAL WEATHER SERVICE WILMINGTON, OH
1100 AM EDT TUE APR 21 2015

NOTE: "FAIR" INDICATES FEW OR NO CLOUDS BELOW 12,000 FEET WITH NO
SIGNIFICANT WEATHER AND/OR OBSTRUCTIONS TO VISIBILITY.

OHZ001>008-015>018-024>027-034-035-043-044-211600-
   NORTHWEST OHIO

CITY           SKY/WX    TMP DP  RH WIND       PRES   REMARKS
DEFIANCE       SUNNY     50  31  48 SW18G32   29.65S
FINDLAY        SUNNY     53  34  48 W23G30    29.67S
TOLEDO EXPRESS MOSUNNY   51  27  39 W24G38    29.62S
TOLEDO EXEC    MOSUNNY   52  29  41 SW28G39   29.64R
LIMA           SUNNY     52  33  48 SW25G33   29.70R
$$

OHZ009>014-019>023-028>033-038-089-211600-
   NORTHEAST OHIO

CITY           SKY/WX    TMP DP  RH WIND       PRES   REMARKS
CLE-HOPKINS    MOSUNNY   53  32  44 SW20G32   29.68S
CLE-LAKEFRONT  MOSUNNY   55  32  41 SW29      29.65S
CUY CO. ARPT   MOSUNNY   54  32  43 SW21G35   29.66S
LORAIN-ELYRIA  LGT RAIN  52  32  46 W30G37    29.66F
ASHTABULA      PTSUNNY   52  29  41 SW26G35   29.65F
AKRON-CANTON   MOSUNNY   54  31  41 SW24G35   29.70S
WOOSTER        LGT RAIN  52  29  41 W22G37    29.70S
MANSFIELD      SUNNY     52  32  46 SW23G31   29.69R
YOUNGSTOWN     PTSUNNY   52  32  46 SW20G35   29.68S
$$

OHZ042-051>053-060>062-070>072-077>081-211600-
  SOUTHWEST OHIO

CITY           SKY/WX    TMP DP  RH WIND       PRES   REMARKS
CINC-COVINGTON MOSUNNY   56  32  40 W16G25    29.81S
CINC-LUNKEN    SUNNY     57  35  43 SW20G29   29.81F
HAMILTON       SUNNY     57  31  37 SW16G26   29.79F
DAYTON         SUNNY     54  34  46 SW21G29   29.75S
WRIGHT-PAT AFB MOSUNNY   54  33  45 SW17G28   29.75S
DAYTON GENERAL SUNNY     53  32  44 SW18G29   29.76S
WILMINGTON     SUNNY     54  32  43 SW20G30   29.77F
$$

OHZ036-037-039>041-045>050-054>059-063>069-073>076-082>088-211600-
  CENTRAL AND SOUTHEAST OHIO

CITY           SKY/WX    TMP DP  RH WIND       PRES   REMARKS
COLUMBUS       SUNNY     53  33  46 SW21G29   29.75F
OSU AIRPORT    SUNNY     54  33  45 SW20G30   29.75S
BOLTON FIELD   SUNNY     54  34  47 SW20G30   29.76F
RICKENBACK AFB SUNNY     55  34  45 SW21G30   29.76S
NEWARK         SUNNY     55  34  45 SW21G29   29.75S
MARION         SUNNY     52  29  41 W16G29    29.71S
LANCASTER      SUNNY     55  34  45 SW17G29   29.78S
ZANESVILLE     SUNNY     54  26  34 SW16G33   29.77S
NEW PHILLY     SUNNY     55  30  38 SW18G29   29.75S
$$


USA.gov is the U.S. government's official web portal to all federal, state and local government web resources and services.